When you browse on this site, cookies collect data to enhance your experience and personalize the content and advertising you see.
Visit our Privacy Policy to learn more. By continuing to use the site, you agree to this use of cookies and data.
  • en France
  • Liste des pays
  • À 7 jours
  • Température de l'eau
  • Carte météo
  • Widgets météo
  • user-avatar
    Se connecter

    Météo par heure à Francistown

    Ce jour, 26 Août, Lundi

    Heure Température Précipitation Vent Pression Humidité
    00:00 +14°C° 0 mm 1 m/s 679 mmHg 49%
    01:00 +13°C° 0 mm 1 m/s 679 mmHg 52%
    02:00 +13°C° 0 mm 1 m/s 679 mmHg 55%
    03:00 +12°C° 0 mm 1 m/s 679 mmHg 56%
    04:00 +12°C° 0 mm 1 m/s 679 mmHg 58%
    05:00 +12°C° 0 mm 1 m/s 678 mmHg 60%
    06:00 +14°C° 0 mm 1 m/s 679 mmHg 52%
    07:00 +16°C° 0 mm 1 m/s 680 mmHg 45%
    08:00 +18°C° 0 mm 2 m/s 681 mmHg 37%
    09:00 +21°C° 0 mm 2 m/s 682 mmHg 31%
    10:00 +25°C° 0 mm 2 m/s 682 mmHg 24%
    11:00 +29°C° 0 mm 3 m/s 682 mmHg 18%
    12:00 +30°C° 0 mm 2 m/s 681 mmHg 15%
    13:00 +31°C° 0 mm 1 m/s 681 mmHg 13%
    14:00 +33°C° 0 mm 1 m/s 680 mmHg 10%
    15:00 +32°C° 0 mm 1 m/s 680 mmHg 10%
    16:00 +32°C° 0 mm 1 m/s 679 mmHg 10%
    17:00 +31°C° 0 mm 1 m/s 679 mmHg 10%
    18:00 +28°C° 0 mm 1 m/s 679 mmHg 13%
    19:00 +24°C° 0 mm 1 m/s 678 mmHg 17%
    20:00 +20°C° 0 mm 2 m/s 678 mmHg 20%
    21:00 +20°C° 0 mm 1 m/s 678 mmHg 22%
    22:00 +19°C° 0 mm 1 m/s 678 mmHg 23%
    23:00 +16°C° 0 mm 0 m/s 678 mmHg 25%

    Demain, 27 Août, Mardi

    Heure Température Précipitation Vent Pression Humidité
    00:00 +16°C° 0 mm 1 m/s 678 mmHg 26%
    01:00 +16°C° 0 mm 1 m/s 678 mmHg 27%
    02:00 +15°C° 0 mm 1 m/s 678 mmHg 27%
    03:00 +15°C° 0 mm 1 m/s 677 mmHg 30%
    04:00 +15°C° 0 mm 1 m/s 677 mmHg 33%
    05:00 +14°C° 0 mm 1 m/s 677 mmHg 36%
    06:00 +18°C° 0 mm 1 m/s 678 mmHg 32%
    07:00 +20°C° 0 mm 1 m/s 679 mmHg 27%
    08:00 +22°C° 0 mm 1 m/s 680 mmHg 23%
    09:00 +25°C° 0 mm 2 m/s 680 mmHg 20%
    10:00 +29°C° 0 mm 3 m/s 680 mmHg 16%
    11:00 +33°C° 0 mm 3 m/s 680 mmHg 13%
    12:00 +34°C° 0 mm 2 m/s 680 mmHg 12%
    13:00 +34°C° 0 mm 1 m/s 679 mmHg 11%
    14:00 +33°C° 0 mm 0 m/s 679 mmHg 10%
    15:00 +35°C° 0 mm 1 m/s 678 mmHg 10%
    16:00 +34°C° 0 mm 1 m/s 678 mmHg 11%
    17:00 +33°C° 0 mm 1 m/s 678 mmHg 11%
    18:00 +30°C° 0 mm 1 m/s 677 mmHg 16%
    19:00 +26°C° 0 mm 1 m/s 677 mmHg 20%
    20:00 +23°C° 0 mm 1 m/s 677 mmHg 25%
    21:00 +22°C° 0 mm 1 m/s 677 mmHg 25%
    22:00 +21°C° 0 mm 1 m/s 677 mmHg 24%
    23:00 +20°C° 0 mm 1 m/s 677 mmHg 23%

    Après-demain, 28 Août, Mercredi

    Heure Température Précipitation Vent Pression Humidité
    00:00 +20°C° 0 mm 1 m/s 677 mmHg 24%
    01:00 +20°C° 0 mm 1 m/s 677 mmHg 24%
    02:00 +19°C° 0 mm 1 m/s 677 mmHg 25%
    03:00 +19°C° 0 mm 1 m/s 676 mmHg 28%
    04:00 +18°C° 0 mm 1 m/s 676 mmHg 30%
    05:00 +18°C° 0 mm 1 m/s 676 mmHg 32%
    06:00 +20°C° 0 mm 1 m/s 677 mmHg 30%
    07:00 +22°C° 0 mm 1 m/s 678 mmHg 27%
    08:00 +24°C° 0 mm 1 m/s 679 mmHg 25%
    09:00 +27°C° 0 mm 2 m/s 679 mmHg 21%
    10:00 +31°C° 0 mm 2 m/s 679 mmHg 17%
    11:00 +35°C° 0 mm 2 m/s 680 mmHg 13%
    12:00 +36°C° 0 mm 2 m/s 679 mmHg 11%
    13:00 +36°C° 0 mm 1 m/s 679 mmHg 10%
    14:00 +37°C° 0 mm 1 m/s 678 mmHg 9%
    15:00 +36°C° 0 mm 1 m/s 678 mmHg 9%
    16:00 +36°C° 0 mm 1 m/s 677 mmHg 9%
    17:00 +36°C° 0 mm 2 m/s 677 mmHg 9%
    18:00 +31°C° 0 mm 2 m/s 676 mmHg 13%
    19:00 +28°C° 0 mm 2 m/s 676 mmHg 16%
    20:00 +24°C° 0 mm 2 m/s 676 mmHg 20%
    21:00 +23°C° 0 mm 2 m/s 677 mmHg 22%
    22:00 +22°C° 0 mm 3 m/s 677 mmHg 25%
    23:00 +21°C° 0 mm 3 m/s 677 mmHg 27%

    29 Août, Jeudi

    Heure Température Précipitation Vent Pression Humidité
    00:00 +20°C° 0 mm 3 m/s 677 mmHg 30%
    01:00 +20°C° 0 mm 4 m/s 677 mmHg 33%
    02:00 +20°C° 0 mm 4 m/s 677 mmHg 36%
    03:00 +19°C° 0 mm 4 m/s 677 mmHg 39%
    04:00 +18°C° 0 mm 4 m/s 677 mmHg 42%
    05:00 +17°C° 0 mm 3 m/s 677 mmHg 45%
    06:00 +17°C° 0 mm 5 m/s 678 mmHg 43%
    07:00 +19°C° 0 mm 6 m/s 678 mmHg 41%
    08:00 +20°C° 0 mm 7 m/s 679 mmHg 39%
    09:00 +23°C° 0 mm 7 m/s 679 mmHg 35%
    10:00 +27°C° 0 mm 6 m/s 680 mmHg 31%
    11:00 +29°C° 0 mm 6 m/s 680 mmHg 27%
    12:00 +32°C° 0 mm 6 m/s 679 mmHg 23%
    13:00 +34°C° 0 mm 5 m/s 679 mmHg 19%
    14:00 +36°C° 0 mm 4 m/s 678 mmHg 16%
    15:00 +35°C° 0 mm 5 m/s 678 mmHg 16%
    16:00 +35°C° 0 mm 5 m/s 677 mmHg 15%
    17:00 +35°C° 0 mm 5 m/s 677 mmHg 15%
    18:00 +32°C° 0 mm 5 m/s 677 mmHg 22%
    19:00 +28°C° 0 mm 6 m/s 677 mmHg 29%
    20:00 +24°C° 0 mm 6 m/s 677 mmHg 35%
    21:00 +23°C° 0 mm 5 m/s 677 mmHg 42%
    22:00 +21°C° 0 mm 5 m/s 677 mmHg 49%
    23:00 +20°C° 0 mm 4 m/s 677 mmHg 57%

    30 Août, Vendredi

    Heure Température Précipitation Vent Pression Humidité
    00:00 +19°C° 0 mm 4 m/s 677 mmHg 62%
    01:00 +18°C° 0 mm 4 m/s 676 mmHg 68%
    02:00 +17°C° 0 mm 4 m/s 676 mmHg 73%
    03:00 +17°C° 0 mm 3 m/s 676 mmHg 74%
    04:00 +16°C° 0 mm 3 m/s 675 mmHg 74%
    05:00 +16°C° 0 mm 2 m/s 675 mmHg 75%
    06:00 +18°C° 0 mm 2 m/s 676 mmHg 64%
    07:00 +20°C° 0 mm 2 m/s 677 mmHg 54%
    08:00 +23°C° 0 mm 2 m/s 677 mmHg 43%
    09:00 +27°C° 0 mm 3 m/s 678 mmHg 35%
    10:00 +30°C° 0 mm 4 m/s 678 mmHg 26%
    11:00 +35°C° 0 mm 4 m/s 678 mmHg 18%
    12:00 +36°C° 0 mm 3 m/s 677 mmHg 15%
    13:00 +37°C° 0 mm 3 m/s 677 mmHg 13%
    14:00 +38°C° 0 mm 2 m/s 676 mmHg 10%
    15:00 +38°C° 0 mm 2 m/s 676 mmHg 10%
    16:00 +37°C° 0 mm 1 m/s 675 mmHg 10%
    17:00 +36°C° 0 mm 1 m/s 675 mmHg 10%
    18:00 +33°C° 0 mm 1 m/s 675 mmHg 13%
    19:00 +29°C° 0 mm 1 m/s 674 mmHg 16%
    20:00 +26°C° 0 mm 1 m/s 674 mmHg 19%
    21:00 +25°C° 0 mm 1 m/s 674 mmHg 21%
    22:00 +24°C° 0 mm 1 m/s 674 mmHg 23%
    23:00 +22°C° 0 mm 1 m/s 674 mmHg 25%

    31 Août, Samedi

    Heure Température Précipitation Vent Pression Humidité
    00:00 +22°C° 0 mm 1 m/s 674 mmHg 25%
    01:00 +21°C° 0 mm 2 m/s 674 mmHg 26%
    02:00 +21°C° 0 mm 2 m/s 673 mmHg 26%
    03:00 +21°C° 0 mm 2 m/s 673 mmHg 27%
    04:00 +20°C° 0 mm 3 m/s 673 mmHg 28%
    05:00 +20°C° 0 mm 3 m/s 674 mmHg 29%
    06:00 +21°C° 0 mm 4 m/s 674 mmHg 28%
    07:00 +23°C° 0 mm 4 m/s 675 mmHg 27%
    08:00 +25°C° 0 mm 4 m/s 676 mmHg 26%
    09:00 +28°C° 0 mm 4 m/s 676 mmHg 22%
    10:00 +32°C° 0 mm 5 m/s 677 mmHg 19%
    11:00 +35°C° 0 mm 5 m/s 677 mmHg 15%
    12:00 +36°C° 0 mm 5 m/s 677 mmHg 14%
    13:00 +37°C° 0 mm 5 m/s 676 mmHg 13%
    14:00 +39°C° 0 mm 5 m/s 676 mmHg 11%
    15:00 +37°C° 0 mm 5 m/s 675 mmHg 11%
    16:00 +37°C° 0 mm 4 m/s 675 mmHg 10%
    17:00 +36°C° 0 mm 4 m/s 675 mmHg 10%
    18:00 +33°C° 0 mm 4 m/s 675 mmHg 10%
    19:00 +28°C° 0 mm 4 m/s 675 mmHg 11%
    20:00 +25°C° 0 mm 4 m/s 675 mmHg 12%
    21:00 +22°C° 0 mm 3 m/s 675 mmHg 10%
    22:00 +21°C° 0 mm 3 m/s 675 mmHg 9%
    23:00 +19°C° 0 mm 2 m/s 675 mmHg 8%
    Voir plus